Lexington, KY

9:43 AM EST on February 28, 2017 (GMT -0500)
Blue Grass

Weather History for KLEX - March, 2015

Change the Weather History Date:

Wednesday, March 11, 2015

  Actual Average Record
Temperature  
Mean Temperature 55 °F 44 °F  
Max Temperature 65 °F 54 °F 78 °F (1990)
Min Temperature 44 °F 34 °F 11 °F (1934)
Degree Days  
Heating Degree Days 10 21  
Month to date heating degree days 308 249  
Since 1 July heating degree days 4286 3820  
Cooling Degree Days 0 0  
Month to date cooling degree days 0 0  
Year to date cooling degree days 0 0  
Growing Degree Days 5 (Base 50)    
Moisture  
Dew Point 47 °F    
Average Humidity 70    
Maximum Humidity 100    
Minimum Humidity 40    
Precipitation  
Precipitation 0.00 in 0.13 in 2.52 in (1935)
Month to date precipitation 5.30 1.37  
Year to date precipitation 10.15 7.77  
Snow  
Snow 0.00 in 0.00 in 2.30 in (1914)
Month to date snowfall 17.1 0.6  
Since 1 July snowfall 40.0 11.9  
Snow Depth 0.00 in    
Sea Level Pressure  
Sea Level Pressure 30.18 in    
Wind  
Wind Speed 5 mph (North)    
Max Wind Speed 14 mph    
Max Gust Speed 17 mph    
Visibility 4 miles    
Events Fog    
T = Trace of Precipitation, MM = Missing Value Source: NWS Daily Summary

Daily Weather History Graph

Daily Weather History Graph

Search for Another Location

Airport or City:

Trip Planner

Search our weather history database for the weather conditions in past years. The results will help you decide how hot, cold, wet, or windy it might be!

Date:

Astronomy

Mar. 11, 2015 Rise Set
Actual Time 7:55 AM EDT 7:41 PM EDT
Civil Twilight 7:29 AM EDT 8:07 PM EDT
Nautical Twilight 6:59 AM EDT 8:38 PM EDT
Astronomical Twilight 6:28 AM EDT 9:09 PM EDT
Moon 12:25 AM EDT (3/11) 11:08 AM EDT (3/11)
Length of Visible Light 12h 38m
Length of Day
11h 45m
Waning Gibbous, 71% of the Moon is Illuminated
Mar 11
Waning Gibbous
Mar 13
Last Quarter
Mar 20
New
Mar 27
First Quarter
Apr 4
Full

Hourly Weather History & Observations

Time (EDT) Temp. Dew Point Humidity Pressure Visibility Wind Dir Wind Speed Gust Speed Precip Events Conditions
12:54 AM 53.1 °F 52.0 °F 96% 30.08 in 6.0 mi West 5.8 mph - N/A   Overcast
1:44 AM 53.1 °F 52.0 °F 96% 30.08 in 3.0 mi WNW 5.8 mph - N/A   Overcast
1:54 AM 53.1 °F 52.0 °F 96% 30.08 in 2.5 mi WNW 5.8 mph - N/A   Overcast
2:39 AM 51.1 °F 51.1 °F 100% 30.09 in 1.5 mi NNW 6.9 mph - N/A   Overcast
2:54 AM 51.1 °F 51.1 °F 100% 30.10 in 1.8 mi NW 6.9 mph - N/A   Overcast
3:50 AM 50.0 °F 50.0 °F 100% 30.10 in 0.5 mi NNW 5.8 mph - N/A Fog Fog
3:54 AM 50.0 °F 50.0 °F 100% 30.10 in 0.5 mi NNW 4.6 mph - N/A Fog Fog
4:12 AM 50.0 °F 50.0 °F 100% 30.10 in 0.2 mi NW 4.6 mph - N/A Fog Fog
4:54 AM 50.0 °F 50.0 °F 100% 30.10 in 0.2 mi NW 6.9 mph - N/A Fog Fog
5:21 AM 48.9 °F 48.9 °F 100% 30.10 in 0.8 mi NNW 6.9 mph - N/A   Mist
5:27 AM 48.9 °F 48.9 °F 100% 30.10 in 2.5 mi NNW 6.9 mph - N/A   Overcast
5:35 AM 48.9 °F 48.9 °F 100% 30.11 in 4.0 mi NNW 5.8 mph - N/A   Overcast
5:46 AM 48.9 °F 48.9 °F 100% 30.12 in 1.8 mi NNW 5.8 mph - N/A   Overcast
5:54 AM 48.9 °F 48.0 °F 97% 30.12 in 1.8 mi NNW 8.1 mph - N/A   Overcast
6:01 AM 48.9 °F 48.0 °F 97% 30.12 in 3.0 mi NNW 6.9 mph - N/A   Overcast
6:14 AM 48.9 °F 48.0 °F 97% 30.12 in 1.0 mi NNW 5.8 mph - N/A   Overcast
6:54 AM 48.0 °F 48.0 °F 100% 30.15 in 0.8 mi NNW 5.8 mph - N/A   Overcast
7:14 AM 48.0 °F 48.0 °F 100% 30.14 in 0.2 mi North 4.6 mph - N/A Fog Fog
7:40 AM 48.0 °F 48.0 °F 100% 30.15 in 0.8 mi North 5.8 mph - N/A   Mist
7:54 AM 48.0 °F 48.0 °F 100% 30.15 in 0.2 mi North 4.6 mph - N/A Fog Fog
8:54 AM 48.0 °F 46.9 °F 96% 30.18 in 0.2 mi NNW 6.9 mph - N/A Fog Fog
9:08 AM 46.9 °F 46.9 °F 100% 30.18 in 0.5 mi North 8.1 mph - N/A Fog Fog
9:54 AM 46.9 °F 46.0 °F 97% 30.20 in 0.8 mi North 6.9 mph - N/A   Overcast
10:11 AM 46.9 °F 46.9 °F 100% 30.21 in 0.2 mi North 4.6 mph - N/A Fog Fog
10:54 AM 48.9 °F 48.9 °F 100% 30.22 in 0.5 mi NNE 5.8 mph - N/A Fog Fog
11:17 AM 48.9 °F 48.0 °F 97% 30.22 in 2.0 mi NNE 8.1 mph - N/A   Overcast
11:25 AM 48.9 °F 48.0 °F 97% 30.22 in 3.0 mi NNE 6.9 mph - N/A   Overcast
11:32 AM 48.9 °F 48.0 °F 97% 30.22 in 2.0 mi North 5.8 mph - N/A   Overcast
11:51 AM 48.2 °F 48.2 °F 100% 30.22 in 5.0 mi NNE 6.9 mph - N/A   Overcast
11:54 AM 48.9 °F 48.0 °F 97% 30.23 in 5.0 mi NNE 5.8 mph - N/A   Overcast
12:23 PM 51.1 °F 48.9 °F 92% 30.23 in 6.0 mi NNE 6.9 mph - N/A   Overcast
12:54 PM 53.1 °F 50.0 °F 89% 30.23 in 10.0 mi NNE 5.8 mph - N/A   Mostly Cloudy
1:12 PM 55.9 °F 50.0 °F 80% 30.23 in 10.0 mi North 5.8 mph - N/A   Scattered Clouds
1:54 PM 59.0 °F 48.0 °F 67% 30.22 in 10.0 mi North 8.1 mph - N/A   Clear
2:54 PM 61.0 °F 46.0 °F 58% 30.21 in 10.0 mi NNE 9.2 mph - N/A   Partly Cloudy
3:54 PM 64.0 °F 39.9 °F 41% 30.22 in 10.0 mi NNE 8.1 mph - N/A   Clear
4:54 PM 64.4 °F 39.2 °F 40% 30.22 in 10.0 mi NE 3.5 mph - N/A   Clear
5:54 PM 64.9 °F 39.9 °F 40% 30.23 in 5.0 mi NNW 4.6 mph - N/A   Haze
6:54 PM 64.0 °F 39.9 °F 41% 30.24 in 10.0 mi Calm Calm - N/A   Clear
7:54 PM 59.0 °F 39.9 °F 49% 30.27 in 9.0 mi SW 3.5 mph - N/A   Clear
8:54 PM 55.9 °F 39.9 °F 55% 30.30 in 9.0 mi Calm Calm - N/A   Clear
9:54 PM 52.0 °F 41.0 °F 66% 30.31 in 8.0 mi Calm Calm - N/A   Clear
10:54 PM 50.0 °F 39.9 °F 68% 30.33 in 10.0 mi NE 5.8 mph - N/A   Clear
11:54 PM 45.0 °F 39.0 °F 80% 30.35 in 8.0 mi Calm Calm - N/A   Clear